COSMOS 2151 (21422 NORAD) Tracking and Keplerian Element Data

This shows tracking and keplerian element data for the satellite.

Feedback or suggestion? Click here.




ElementValue
Catalog21422
NameCOSMOS 2151
Epoch Orbit44638
Epoch Day198.64531378
Epoch Year2018
RAAN230.08
Inclination82.4991
Eccentricity0.0015551
Argument of Perigee57.8694
Mean Anonmoly302.4033
Mean Motion14.91966421
Decay Rate1.12E-06
L11 21422U 91042A 18198.64531378 .00000112 00000-0 84407-5 0 9993
L22 21422 82.4991 230.0800 0015551 57.8694 302.4033 14.91966421446388

Live tracking and technical data element details for COSMOS 2151 (NORAD 21422). COSMOS 2151 can be tracked NOW for your location showing map with azimuth and elevation plus other details from your city location.

Track the satellite on the map from your city or location and see movement details for azimuth, elevation, latitude, longitude, range, height, and movement on the map or in text.







IsCatalogInMostPopularTable: catalog: 21422, numindb: 30
Update: records affected: 1



GetName: 21422 COSMOS 2151

Hit Count: updated at: Fri, 20 Jul 2018 20:37:40 GMT